Volver al catálogo

STARLINK-37535

ActivoComunicacionesVLEO
NORAD 69465·PAYLOAD·🇺🇸 United States

Lanzado Jun 8, 2026 desde Cape Canaveral Space Force Station

Loading…

Próximos Pases (próximas 24 horas)

TLE

ActualizadoSource: CelesTrak SupGP

Época: Sep 15, 2026, 03:54 UTC

1 69465C 26127Y   26258.16298611 -.00027193  00000+0 -80345-3 0  2589
2 69465  53.1570 190.7790 0001321  83.3999 183.3008 15.34403585    16

Sigue STARLINK-37535 en tiempo real con AllMySat

Download on the App Store